| time (UTC) | temp F | wind direction | speed MPH | gust MPH | rain 1hr in | rain 24hr in | rain mn in | humidity % | barometer mb |
| 20260506004543 | 51 | 238 | 0.0 | 0.0 | 0.00 | 0.30 | 0.00 | 94 | 1008.8 |
| 20260506003100 | 50 | 238 | 0.0 | 0.0 | 0.00 | 0.30 | 0.00 | 94 | 1008.8 |
| 20260506001521 | 49 | 238 | 0.0 | 0.0 | 0.00 | 0.30 | 0.00 | 94 | 1008.9 |
| 20260506000034 | 48 | 238 | 0.0 | 0.0 | 0.00 | 0.30 | 0.00 | 93 | 1009.1 |
| 20260505234559 | 48 | 238 | 0.0 | 0.0 | 0.00 | 0.30 | 0.00 | 93 | 1009.3 |
| 20260505233027 | 48 | 238 | 0.0 | 0.0 | 0.00 | 0.30 | 0.00 | 93 | 1009.3 |
| 20260505231552 | 48 | 238 | 0.0 | 0.0 | 0.00 | 0.30 | 0.00 | 93 | 1009.3 |
| 20260505230012 | 48 | 238 | 0.0 | 0.0 | 0.00 | 0.30 | 0.00 | 93 | 1009.4 |
| 20260505224524 | 48 | 238 | 0.0 | 0.0 | 0.00 | 0.30 | 0.00 | 93 | 1009.6 |
| 20260505223042 | 48 | 238 | 0.0 | 0.0 | 0.00 | 0.30 | 0.00 | 92 | 1009.3 |
| 20260505221556 | 47 | 238 | 0.0 | 0.0 | 0.00 | 0.30 | 0.00 | 92 | 1009.3 |
| 20260505220025 | 48 | 238 | 0.0 | 0.0 | 0.00 | 0.30 | 0.30 | 92 | 1009.2 |
| 20260505214525 | 47 | 238 | 0.0 | 0.0 | 0.00 | 0.30 | 0.30 | 92 | 1009.3 |
| 20260505213034 | 48 | 238 | 0.0 | 0.0 | 0.00 | 0.30 | 0.30 | 91 | 1009.3 |
| 20260505211558 | 48 | 238 | 0.0 | 0.0 | 0.00 | 0.30 | 0.30 | 91 | 1009.2 |
| 20260505210106 | 49 | 238 | 0.0 | 0.0 | 0.00 | 0.30 | 0.30 | 91 | 1009.3 |
| 20260505204508 | 49 | 238 | 0.0 | 0.0 | 0.00 | 0.30 | 0.30 | 91 | 1009.3 |
| 20260505203025 | 50 | 238 | 0.0 | 0.0 | 0.00 | 0.30 | 0.30 | 91 | 1009.2 |
| 20260505201549 | 50 | 238 | 0.0 | 0.0 | 0.00 | 0.30 | 0.30 | 91 | 1009.2 |
| 20260505200110 | 50 | 238 | 0.0 | 0.0 | 0.00 | 0.30 | 0.30 | 90 | 1009.2 |
| 20260505194520 | 51 | 238 | 0.0 | 0.0 | 0.00 | 0.30 | 0.30 | 90 | 1009.0 |
| 20260505193101 | 52 | 238 | 0.0 | 0.0 | 0.00 | 0.30 | 0.30 | 89 | 1008.7 |
| 20260505191523 | 52 | 238 | 0.0 | 0.0 | 0.00 | 0.30 | 0.30 | 89 | 1008.3 |
| 20260505190044 | 53 | 238 | 0.0 | 0.0 | 0.00 | 0.30 | 0.30 | 89 | 1008.4 |
| 20260505184559 | 54 | 238 | 0.0 | 0.0 | 0.00 | 0.30 | 0.30 | 88 | 1008.4 |
| 20260505183005 | 55 | 238 | 0.0 | 0.0 | 0.00 | 0.30 | 0.30 | 88 | 1008.5 |
| 20260505181521 | 56 | 238 | 0.0 | 0.0 | 0.00 | 0.30 | 0.30 | 87 | 1008.5 |
| 20260505180032 | 56 | 238 | 0.0 | 0.0 | 0.00 | 0.30 | 0.30 | 86 | 1008.1 |
| 20260505174606 | 57 | 235 | 0.0 | 2.0 | 0.00 | 0.30 | 0.30 | 85 | 1008.3 |
| 20260505173012 | 57 | 263 | 0.0 | 2.0 | 0.00 | 0.30 | 0.30 | 85 | 1008.4 |
| 20260505171540 | 58 | 250 | 0.0 | 0.0 | 0.00 | 0.30 | 0.30 | 84 | 1008.5 |
| 20260505170058 | 58 | 245 | 0.0 | 3.0 | 0.00 | 0.30 | 0.30 | 82 | 1008.6 |
| 20260505164518 | 58 | 254 | 0.0 | 0.0 | 0.00 | 0.30 | 0.30 | 81 | 1008.6 |
| 20260505163028 | 59 | 233 | 0.0 | 0.0 | 0.00 | 0.30 | 0.30 | 82 | 1008.5 |
| 20260505161546 | 59 | 239 | 0.0 | 0.0 | 0.00 | 0.30 | 0.30 | 83 | 1008.6 |
| 20260505153033 | 58 | 246 | 0.0 | 4.0 | 0.00 | 0.30 | 0.30 | 86 | 1008.6 |
| 20260505151555 | 58 | 233 | 0.0 | 6.0 | 0.00 | 0.30 | 0.30 | 85 | 1008.5 |
| 20260505124526 | 61 | 245 | 0.0 | 0.0 | 0.01 | 0.31 | 0.30 | 89 | 1008.2 |
| 20260505123036 | 60 | 229 | 0.0 | 2.0 | 0.02 | 0.31 | 0.30 | 89 | 1008.3 |
| 20260505121552 | 58 | 213 | 0.0 | 0.0 | 0.06 | 0.31 | 0.30 | 90 | 1008.5 |
| 20260505120011 | 57 | 213 | 0.0 | 1.0 | 0.06 | 0.31 | 0.28 | 90 | 1008.7 |
| 20260505114525 | 57 | 244 | 0.0 | 3.0 | 0.06 | 0.31 | 0.28 | 90 | 1008.8 |
| 20260505113038 | 58 | 235 | 0.0 | 4.0 | 0.06 | 0.30 | 0.28 | 88 | 1008.8 |
| 20260505111557 | 59 | 240 | 0.0 | 1.0 | 0.01 | 0.25 | 0.24 | 86 | 1008.8 |
| 20260505101608 | 58 | 281 | 0.0 | 7.0 | 0.00 | 0.24 | 0.23 | 85 | 1009.0 |
| 20260505100018 | 58 | 342 | 0.0 | 0.0 | 0.00 | 0.24 | 0.23 | 84 | 1008.9 |
| 20260505094526 | 58 | 225 | 0.0 | 0.0 | 0.00 | 0.25 | 0.23 | 87 | 1008.9 |
| 20260505093040 | 59 | 258 | 1.0 | 5.0 | 0.00 | 0.25 | 0.23 | 87 | 1008.8 |
| 20260505091612 | 58 | 238 | 0.0 | 3.0 | 0.00 | 0.25 | 0.23 | 88 | 1008.8 |
| 20260505090038 | 58 | 238 | 0.0 | 0.0 | 0.00 | 0.25 | 0.23 | 89 | 1008.7 |
| 20260505084549 | 57 | 238 | 0.0 | 1.0 | 0.00 | 0.28 | 0.23 | 89 | 1008.7 |
| 20260505083107 | 57 | 238 | 0.0 | 1.0 | 0.00 | 0.28 | 0.23 | 90 | 1008.5 |
| 20260505081524 | 57 | 238 | 0.0 | 0.0 | 0.00 | 0.28 | 0.23 | 91 | 1008.5 |
| 20260505080044 | 56 | 238 | 0.0 | 0.0 | 0.00 | 0.28 | 0.23 | 92 | 1008.5 |
| 20260505074550 | 56 | 238 | 0.0 | 0.0 | 0.00 | 0.28 | 0.23 | 94 | 1008.6 |
| 20260505073106 | 55 | 238 | 0.0 | 0.0 | 0.00 | 0.28 | 0.23 | 94 | 1008.8 |
| 20260505071515 | 54 | 238 | 0.0 | 1.0 | 0.00 | 0.28 | 0.23 | 94 | 1008.9 |
| 20260505070021 | 53 | 238 | 0.0 | 0.0 | 0.00 | 0.28 | 0.23 | 94 | 1009.0 |
| 20260505064540 | 52 | 238 | 0.0 | 0.0 | 0.01 | 0.28 | 0.23 | 94 | 1009.1 |
| 20260505063050 | 52 | 238 | 0.0 | 0.0 | 0.01 | 0.28 | 0.23 | 94 | 1009.2 |
| 20260505061505 | 52 | 238 | 0.0 | 0.0 | 0.02 | 0.28 | 0.23 | 94 | 1009.4 |
| 20260505060123 | 51 | 238 | 0.0 | 0.0 | 0.02 | 0.28 | 0.23 | 94 | 1009.5 |
| 20260505054600 | 51 | 238 | 0.0 | 0.0 | 0.02 | 0.28 | 0.22 | 94 | 1009.6 |
| 20260505053026 | 51 | 238 | 0.0 | 0.0 | 0.02 | 0.28 | 0.22 | 94 | 1009.8 |
| 20260505051534 | 51 | 238 | 0.0 | 0.0 | 0.03 | 0.27 | 0.21 | 93 | 1009.9 |
| 20260505041519 | 50 | 238 | 0.0 | 0.0 | 0.06 | 0.24 | 0.18 | 93 | 1010.3 |
| 20260505040044 | 50 | 238 | 0.0 | 0.0 | 0.06 | 0.23 | 0.17 | 93 | 1010.5 |
| 20260505034623 | 50 | 238 | 0.0 | 0.0 | 0.06 | 0.20 | 0.15 | 93 | 1010.6 |
| 20260505033005 | 50 | 238 | 0.0 | 0.0 | 0.05 | 0.19 | 0.13 | 93 | 1010.7 |
| 20260505031520 | 50 | 238 | 0.0 | 0.0 | 0.06 | 0.18 | 0.13 | 93 | 1010.8 |
| 20260505030034 | 50 | 238 | 0.0 | 0.0 | 0.06 | 0.17 | 0.11 | 93 | 1010.9 |
| 20260505024552 | 50 | 238 | 0.0 | 0.0 | 0.07 | 0.15 | 0.09 | 93 | 1011.0 |
| 20260505023100 | 50 | 238 | 0.0 | 0.0 | 0.07 | 0.14 | 0.09 | 93 | 1011.1 |
| 20260505021514 | 50 | 238 | 0.0 | 0.0 | 0.06 | 0.12 | 0.06 | 93 | 1011.2 |
| 20260505020036 | 50 | 238 | 0.0 | 0.0 | 0.04 | 0.10 | 0.05 | 93 | 1011.3 |
| 20260505014608 | 50 | 238 | 0.0 | 0.0 | 0.02 | 0.08 | 0.02 | 93 | 1011.4 |
| 20260505013012 | 50 | 238 | 0.0 | 0.0 | 0.02 | 0.07 | 0.02 | 93 | 1011.3 |
| 20260505011527 | 50 | 238 | 0.0 | 0.0 | 0.01 | 0.06 | 0.01 | 93 | 1011.4 |
| 20260505010039 | 50 | 238 | 0.0 | 0.0 | 0.01 | 0.06 | 0.01 | 93 | 1011.5 |